Regional Weather Roundup
Issued by NWS

Home | Current Version | Previous Version | Graphics & Text | Print | Product List | Glossary Off
Versions: 1 2 3 4 5 6 7 8 9 10 11 12 13 14 15 16 17 18 19 20 21 22 23 24 25 26 27 28 29 30 31 32 33 34 35 36 37 38 39 40 41 42 43 44 45 46 47 48 49 50

000
ASUS43 KTOP 010959
RWRKS

WEATHER ROUNDUP FOR KANSAS
NATIONAL WEATHER SERVICE GOODLAND KS
400 AM CST SUN MAR 01 2015

NOTE:  "FAIR" INDICATES FEW OR NO CLOUDS BELOW 12,000 FEET WITH NO
SIGNIFICANT WEATHER AND/OR OBSTRUCTIONS TO VISIBILITY.

KSZ001>006-013>018-027>032-041>047-011100-
NORTHWEST KANSAS

CITY           SKY/WX    TMP DP  RH WIND       PRES   REMARKS
GOODLAND       CLOUDY    19  17  92 S3        30.14S
HAYS           CLOUDY    16   7  67 CALM      30.27S
HILL CITY      CLOUDY    19  15  84 CALM      30.26S
RUSSELL        MOCLDY    17  16  95 S3        30.27R
$$

KSZ061>065-074>080-084>089-011100-
SOUTHWEST KANSAS

CITY           SKY/WX    TMP DP  RH WIND       PRES   REMARKS
DODGE CITY     CLOUDY    19  17  92 SE5       30.22S FOG
ELKHART          N/A     21  15  78 S7          N/A
GARDEN CITY    CLOUDY    19  18  95 S3        30.19S FOG
GREAT BEND     CLOUDY    19  14  79 CALM      30.28S
LIBERAL        CLOUDY    23  18  80 SE6       30.18F
$$

KSZ066>073-081>083-090>101-011100-
SOUTHEAST KANSAS

CITY           SKY/WX    TMP DP  RH WIND       PRES   REMARKS
CHANUTE        CLOUDY    23  22  96 CALM      30.34F
COFFEYVILLE    CLOUDY    25  23  92 N5        30.36S FOG
HUTCHINSON     CLOUDY    22  18  85 CALM      30.30F
MEDICINE LODGE   N/A     21  20  96 CALM      30.29S
NEWTON         CLOUDY    19  16  86 CALM      30.31F VSB 3/4
PARSONS        CLOUDY    25  23  92 N5        30.35F FOG
WICHITA INTL   FOG       23  21  92 CALM      30.31F VSB 1/8
WICHITA JABRA  CLOUDY    21  20  96 CALM      30.30F FOG
WICHITA MCCONL FRZ DRZL  21  21 100 E2        30.30F VSB 1/2
WINFIELD       CLOUDY    23  23 100 CALM      30.33F FOG
$$

KSZ007>012-019>026-033>040-048>060-102>105-011100-
NORTHEAST KANSAS

CITY           SKY/WX    TMP DP  RH WIND       PRES   REMARKS
CONCORDIA      CLOUDY    20  17  88 CALM      30.30S
EMPORIA        CLOUDY    21  19  92 CALM      30.32F
LAWRENCE       CLOUDY    22  19  89 CALM      30.36S
MANHATTAN      CLOUDY    20  18  92 CALM      30.34F
OLATHE IND     CLOUDY    21  19  92 NW5       30.35S
OLATHE EXE     CLOUDY    22  20  92 NW5       30.33S
SALINA         MOCLDY    17  14  88 S3        30.32F
TOPEKA BILLARD CLOUDY    22  18  85 CALM      30.35F
TOPEKA FORBES  CLOUDY    23  19  85 CALM      30.33F
$$



USA.gov is the U.S. government's official web portal to all federal, state and local government web resources and services.